sat.trackr.live / text

‹ back to catalog

STARLINK-35670

NORAD 66480 · 2025-262AA

PAYLOAD ACTIVE UNKNOWN

§ Identity

Operator
Country
US
Launch date
2025-11-15
Launch site
AFETR
Launch vehicle
Mass (kg)
RCS (m²)

Purposes: comms

External: N2YO · Heavens-Above · Gunter

§ Orbital elements

Epoch: 2026-09-20T08:05:26.103552Z

Period
94.27 min
Inclination
42.9960°
Eccentricity
0.0000943
Mean motion
15.27583863 rev/d
Perigee alt
482.4 km
Apogee alt
483.7 km
Semi-major
6,861.2 km
B*
3.3130e-4
RAAN
277.0298°
Arg perigee
114.3411°
Mean anomaly
245.7539°
Rev number
4,867

§ Raw data

STARLINK-356701 66480U 25262AA  26263.33710768  .00008867  00000+0  33130-3 0  99962 66480  42.9960 277.0298 0000943 114.3411 245.7539 15.27583863 48670

JSON: /api/v1/satellites/66480 · /tle

For live sub-satellite position, see the globe view (requires WebGL).

§ Visibility from observer

Set your observer location to see the next 7 days of passes ≥ 10°. The values pass through the URL so the page stays shareable.

No JS? Fill the form by hand. The geolocation button needs JavaScript.